User: anonymous   Login
Location: Unspecified
(0.0000°N, 0.0000°E)
Time: 18:41:48
(UTC+00:00)
Language:

APRIZESAT 6 - Orbit

View from above orbital plane
View from above orbital plane
View from above satellite
View from above satellite

Ground track
Ground track

The orbit data is extracted from the following two-line orbital elements,

1 37793U 11044F   19085.22165688  .00000045  00000-0  15813-4 0  9991
2 37793  98.3763 239.7083 0046956 183.0092 303.0595 14.72373012408470
Epoch (UTC): 26 March 2019 05:19:11
Eccentricity: 0.0046956
inclination: 98.3763°
perigee height: 620 km
apogee height: 686 km
right ascension of ascending node: 239.7083°
argument of perigee: 183.0092°
revolutions per day: 14.72373012
mean anomaly at epoch: 303.0595°
orbit number at epoch: 40847

The dashed part of the orbit path shows where the satellite is in the earth's shadow,  

DLR